Location: Asheville, NC
(35.6000°N, 82.5500°W)
Time: 02:31:45

KKS-1 - Pass Details

Date: 09 March 2018
Orbit: 638 x 650 km, 98.4° (Epoch: 16 March)

Event Time Altitude Azimuth Distance (km) Brightness Sun altitude
Rises 04:56:39 0° 153° (SSE) 2,944 ? -23.6°
Reaches altitude 10° 04:58:54 10° 147° (SSE) 2,040 ? -23.2°
Maximum altitude 05:03:11 49° 73° (ENE) 840 ? -22.3°
Drops below altitude 10° 05:07:30 10° 359° (N) 2,056 ? -21.5°
Sets 05:09:46 0° 354° (N) 2,971 ? -21.0°
